DW6784 Goteborg SE current weather conditions

sailwx.info

Wind from 321

Air temperature 3.3° C
Dewpoint 2.2° C

Last reported at 2020-May-28 00:04 UTC.
Time now 2020-May-28 00:32 UTC

Location: N 57°42' E 012°29'.
View on Google Maps.

See reports from other nearby stations

  
Tides and Currents Weather Stations Pressure Air Temp Water Temp Dewpoint Dewpoint Depression Visibility Wind Speed Wind Dir Waves Ship Positions
date/time (UTC)wind fromknots sea level pressurealtimeterstation pressurevisibilityair tempwater tempwave heightnotes
2020-May-28 00:04 321 3.3
2020-May-27 23:49 321 3.9
2020-May-27 23:44 321 3.9
2020-May-27 23:39 321 3.9
2020-May-27 23:19 321 0 gusting 0 3.9
2020-May-27 23:14 321 0 gusting 1 3.9
2020-May-27 23:04 321 4.4
2020-May-27 22:49 321 4.4
2020-May-27 22:44 321 0 gusting 0 4.4
2020-May-27 22:39 321 0 gusting 1 5.0
2020-May-27 22:34 321 0 gusting 1 5.0
2020-May-27 22:19 321 0 gusting 1 5.0
2020-May-27 22:14 321 0 gusting 0 5.6
2020-May-27 21:39 321 6.1
2020-May-27 21:34 321 6.1
2020-May-27 21:19 330 6.7
2020-May-27 21:14 334 6.7
2020-May-27 21:09 334 6.7
2020-May-27 21:04 334 7.2
2020-May-27 20:49 334 7.2
2020-May-27 20:39 334 7.8
2020-May-27 20:34 334 8.3
2020-May-27 20:09 284 9.4
2020-May-27 20:04 284 9.4
2020-May-27 19:44 284 11.1
2020-May-27 19:39 227 0 gusting 2 11.1
2020-May-27 19:34 281 1 gusting 6 11.1
2020-May-27 19:14 254 0 gusting 1 11.7
2020-May-27 19:09 244 0 gusting 2 11.7
2020-May-27 18:49 291 1 gusting 4 12.2
2020-May-27 18:34 324 0 gusting 5 12.8
2020-May-27 18:19 002 1 gusting 6 13.3
2020-May-27 18:09 342 2 gusting 6 13.3
2020-May-27 17:34 308 2 gusting 8 13.9
2020-May-27 17:14 304 1 gusting 8 14.4
2020-May-27 17:04 257 3 gusting 10 15.0
2020-May-27 16:34 274 3 gusting 7 15.0
2020-May-27 16:19 303 3 gusting 10 14.4
2020-May-27 16:09 289 5 gusting 8 14.4
2020-May-27 15:44 229 3 gusting 10 14.4
2020-May-27 15:39 327 0 gusting 6 14.4
2020-May-27 15:34 14.4
2020-May-27 15:19 288 2 gusting 6 14.4
2020-May-27 15:14 291 3 gusting 6 14.4
2020-May-27 15:04 310 4 gusting 10 14.4
2020-May-27 14:44 258 2 gusting 7 14.4
2020-May-27 14:39 332 5 gusting 10 14.4
2020-May-27 14:34 332 2 gusting 10 15.0
2020-May-27 14:14 323 4 gusting 7 15.6
2020-May-27 14:09 294 5 gusting 12 15.6
2020-May-27 14:04 330 3 gusting 8 15.6
2020-May-27 13:34 003 2 gusting 10 15.6
2020-May-27 13:19 333 2 gusting 6 15.6
2020-May-27 13:14 310 4 gusting 7 15.6
2020-May-27 13:04 356 1 gusting 11 15.0
2020-May-27 12:39 337 4 gusting 8 15.6
2020-May-27 12:34 305 2 gusting 7 15.6
2020-May-27 12:19 304 4 gusting 8 15.6
2020-May-27 12:14 307 3 gusting 10 15.0
2020-May-27 12:09 272 6 gusting 12 15.6
2020-May-27 11:49 311 2 gusting 7 15.6
2020-May-27 11:39 237 4 gusting 10 15.6
2020-May-27 11:34 253 4 gusting 14 15.6
2020-May-27 11:19 246 5 gusting 13 15.0
2020-May-27 11:09 276 2 gusting 7 15.0
2020-May-27 11:04 293 2 gusting 10 15.0
2020-May-27 10:44 272 3 gusting 7 14.4
2020-May-27 10:34 237 4 gusting 10 15.0
2020-May-27 10:19 262 5 gusting 10 15.6
2020-May-27 10:09 248 2 gusting 10 15.0
2020-May-27 09:34 243 5 gusting 12 13.9
2020-May-27 09:19 241 3 gusting 10 13.3
2020-May-27 09:14 279 5 gusting 8 13.3
2020-May-27 09:04 286 4 gusting 7 13.3
2020-May-27 08:44 228 2 gusting 8 13.3
2020-May-27 08:39 225 4 gusting 8 12.8
2020-May-27 08:34 262 3 gusting 10 12.8
2020-May-27 08:09 201 2 gusting 6 12.8
2020-May-27 08:04 252 4 gusting 10 12.8
2020-May-27 07:49 244 4 gusting 10 12.2
2020-May-27 07:39 241 5 gusting 8 12.2
2020-May-27 07:19 289 1 gusting 8 11.7
2020-May-27 07:14 248 5 gusting 8 11.7
2020-May-27 07:09 235 3 gusting 6 11.7
2020-May-27 07:04 249 3 gusting 8 11.7
2020-May-27 06:49 211 4 gusting 7 11.7
2020-May-27 06:34 229 4 gusting 10 11.1
2020-May-27 06:14 262 1 gusting 5 11.1
2020-May-27 06:09 273 2 gusting 6 10.6
2020-May-27 06:04 223 2 gusting 8 10.6
2020-May-27 05:49 249 2 gusting 6 10.6
2020-May-27 05:44 229 2 gusting 7 10.6
2020-May-27 05:39 289 1 gusting 7 10.6
2020-May-27 05:34 237 2 gusting 4 10.6
2020-May-27 05:19 247 1 gusting 2 10.0
2020-May-27 05:09 244 1 gusting 6 10.0
2020-May-27 04:49 243 10.0
2020-May-27 04:44 241 1 gusting 2 10.0
2020-May-27 04:19 232 2 gusting 6 10.0
2020-May-27 04:14 230 2 gusting 6 10.0
2020-May-27 04:09 239 2 gusting 7 10.0
2020-May-27 04:04 228 1 gusting 5 10.0
2020-May-27 03:49 229 2 gusting 6 10.0
2020-May-27 03:44 222 2 gusting 6 10.0
2020-May-27 03:39 218 1 gusting 6 10.0
2020-May-27 03:34 213 1 gusting 6 10.0
2020-May-27 03:14 225 1 gusting 2 9.4
2020-May-27 03:09 242 1 gusting 6 9.4
2020-May-27 02:49 244 1 gusting 5 8.9
2020-May-27 02:44 244 1 gusting 4 8.9
2020-May-27 02:39 232 1 gusting 2 8.9
2020-May-27 02:19 246 0 gusting 0 7.2
2020-May-27 02:09 246 7.2
2020-May-27 02:04 246 7.2
2020-May-27 01:49 254 6.7
2020-May-27 01:44 254 6.7
2020-May-27 01:34 254 6.7
2020-May-27 01:19 254 7.2
2020-May-27 01:14 254 0 gusting 0 7.2
2020-May-27 01:09 254 7.2
2020-May-27 01:04 254 7.2
2020-May-27 00:49 254 7.2
2020-May-27 00:44 254 7.2
2020-May-27 00:39 254 7.2
2020-May-27 00:34 254 7.8
2020-May-27 00:19 254 8.3
2020-May-27 00:09 254 8.3
2020-May-27 00:04 254 8.3
2020-May-26 23:49 254 7.8
2020-May-26 23:44 254 7.8
2020-May-26 23:39 254 7.8
2020-May-26 23:34 254 7.2
2020-May-26 23:09 254 7.2
2020-May-26 23:04 254 6.7
2020-May-26 22:49 254 6.7
2020-May-26 22:44 254 6.7
2020-May-26 22:39 254 6.7
2020-May-26 22:34 254 6.7
2020-May-26 22:19 254 7.2
2020-May-26 22:14 254 7.2
2020-May-26 22:09 254 7.2
2020-May-26 21:49 254 7.2
2020-May-26 21:44 254 7.8
2020-May-26 21:39 254 7.8
2020-May-26 21:19 254 8.3
2020-May-26 21:14 254 8.3
2020-May-26 21:09 254 8.3
2020-May-26 21:04 254 8.9
2020-May-26 20:44 254 9.4
2020-May-26 20:39 254 10.0
2020-May-26 20:34 254 10.0
2020-May-26 20:19 254 11.1
2020-May-26 20:14 254 11.1
2020-May-26 20:09 254 11.7
2020-May-26 19:44 247 1 gusting 2 12.8
2020-May-26 19:19 223 1 gusting 5 13.3
2020-May-26 19:14 226 1 gusting 2 13.3
2020-May-26 19:09 247 2 gusting 6 13.9
2020-May-26 19:04 234 1 gusting 7 13.9
2020-May-26 18:49 265 2 gusting 5 13.9
2020-May-26 18:39 247 2 gusting 6 14.4
2020-May-26 18:19 242 1 gusting 6 15.0
2020-May-26 18:14 280 3 gusting 6 15.0
2020-May-26 18:09 262 2 gusting 5 15.0
2020-May-26 18:04 267 2 gusting 6 15.0
2020-May-26 17:49 259 1 gusting 4 15.6
2020-May-26 17:14 267 4 gusting 8 16.1
2020-May-26 17:09 239 6 gusting 10 16.1
2020-May-26 17:04 245 4 gusting 8 16.7
2020-May-26 16:49 224 6 gusting 10 16.7
2020-May-26 16:44 229 2 gusting 10 16.7
2020-May-26 16:39 232 6 gusting 11 16.7
2020-May-26 16:34 255 6 gusting 13 16.7
2020-May-26 16:19 219 5 gusting 13 17.2
2020-May-26 16:09 271 6 gusting 11 17.8
2020-May-26 16:04 241 6 gusting 17 17.8
2020-May-26 15:44 259 5 gusting 12 18.3
2020-May-26 15:39 246 3 gusting 10 18.9
2020-May-26 15:34 259 4 gusting 10 18.9
2020-May-26 15:19 282 4 gusting 10 18.9
2020-May-26 14:39 258 6 gusting 11 18.9
2020-May-26 14:34 230 7 gusting 15 18.9
2020-May-26 14:09 214 6 gusting 10 18.9
2020-May-26 14:04 261 5 gusting 15 18.9
2020-May-26 13:49 243 7 gusting 15 19.4
2020-May-26 13:44 227 6 gusting 11 19.4
2020-May-26 13:34 237 6 gusting 14 19.4
2020-May-26 13:19 218 6 gusting 13 18.9
2020-May-26 13:14 245 6 gusting 13 18.9
2020-May-26 13:04 245 6 gusting 14 18.9
2020-May-26 12:49 236 7 gusting 11 18.9
2020-May-26 12:44 214 5 gusting 10 19.4
2020-May-26 12:39 283 4 gusting 7 19.4
2020-May-26 12:34 247 5 gusting 13 20.0
2020-May-26 12:14 189 4 gusting 11 20.0
2020-May-26 11:39 229 5 gusting 12 20.0
2020-May-26 11:34 217 3 gusting 12 20.0
2020-May-26 11:19 228 5 gusting 10 19.4
2020-May-26 11:14 276 4 gusting 6 18.9
2020-May-26 11:09 247 6 gusting 11 18.9
2020-May-26 11:04 241 6 gusting 11 18.9
2020-May-26 10:49 241 5 gusting 10 18.9
2020-May-26 10:44 232 6 gusting 13 18.9
2020-May-26 10:34 237 8 gusting 13 18.9
2020-May-26 10:19 247 6 gusting 13 18.3
2020-May-26 10:14 228 6 gusting 12 18.3
2020-May-26 10:04 237 6 gusting 11 17.8
2020-May-26 09:49 004 1 gusting 4 18.3
2020-May-26 09:44 227 4 gusting 8 17.8
2020-May-26 09:39 233 6 gusting 11 18.3
2020-May-26 09:34 232 6 gusting 13 18.3
2020-May-26 09:09 244 5 gusting 12 17.8
2020-May-26 08:44 159 5 gusting 10 18.3
2020-May-26 08:39 201 3 gusting 10 18.3
2020-May-26 08:34 197 4 gusting 11 18.3
2020-May-26 08:19 215 4 gusting 11 17.8
2020-May-26 08:04 176 4 gusting 7 17.2
2020-May-26 07:49 241 2 gusting 6 16.7
2020-May-26 07:44 230 2 gusting 6 16.7
2020-May-26 07:39 240 5 gusting 11 16.7
2020-May-26 07:34 198 2 gusting 5 16.7
2020-May-26 07:19 178 2 gusting 5 16.1
2020-May-26 06:44 174 2 gusting 5 14.4
2020-May-26 06:39 227 1 gusting 4 13.9
2020-May-26 06:14 220 3 gusting 5 12.8
2020-May-26 06:09 205 2 gusting 4 12.2
2020-May-26 06:04 207 0 gusting 2 11.7
2020-May-26 05:49 196 2 gusting 5 10.6
2020-May-26 05:39 210 10.0
2020-May-26 05:34 204 10.0
2020-May-26 05:14 10.0
2020-May-26 05:09 9.4
2020-May-26 05:04 8.9
2020-May-26 04:49 6.1
2020-May-26 04:44 5.6
2020-May-26 04:19 4.4